Regional Weather Roundup
Issued by NWS

Home | Current Version | Previous Version | Text Only | Print | Product List | Glossary Off
Versions: 1 2 3 4 5 6 7 8 9 10 11 12 13 14 15 16 17 18 19 20 21 22 23 24 25 26 27 28 29 30 31 32 33 34 35 36 37 38 39 40 41 42 43 44 45 46 47 48 49 50

000
ASUS45 KSLC 271410
RWRUT

UTAH REGIONAL WEATHER ROUNDUP
NATIONAL WEATHER SERVICE SALT LAKE CITY UT
800 AM MDT FRI MAR 27 2015

UTZ001>011-023>025-271500-

NORTHERN UTAH

CITY           SKY/WX    TMP DP  RH WIND       PRES   REMARKS
BRIGHAM CITY   CLEAR     35  30  83 CALM      30.34S
HILL AFB       CLEAR     41  28  59 NE12      30.33R
LOGAN          CLEAR     31  28  89 W5        30.34S WCI  26
OGDEN          CLEAR     39  29  67 S7        30.32S WCI  34
PROVO AIRPORT  CLEAR     36  27  69 SE6       30.35F WCI  31
SALT LAKE CITY CLEAR     42  31  64 SE7       30.32R
VERNAL         CLEAR     36  25  64 W5        30.32R WCI  32
WENDOVER       CLEAR     39  25  56 CALM      30.32R
HEBER CITY     CLEAR     27  23  86 CALM      30.38S
WEST JORDAN    CLEAR     41  32  70 S7        30.33R

$$

UTZ012>022-026-027-271500-

SOUTHERN/CENTRAL UTAH

CITY           SKY/WX    TMP DP  RH WIND       PRES   REMARKS
BLANDING       CLEAR     39  23  53 N7        30.39R WCI  34
BRYCE CANYON   PTCLDY    27  24  89 W8        30.41R WCI  19
CEDAR CITY     CLEAR     30  22  72 CALM      30.33R
DELTA          PTCLDY    34  26  71 NE8       30.34R WCI  28
HANKSVILLE     CLEAR     32  18  55 CALM      30.32R
MILFORD        CLEAR     30  20  66 SW5       30.34R WCI  25
MOAB/CYNLANDS  CLEAR     36  17  46 SW5       30.29R WCI  32
PRICE          CLEAR     44  23  43 CALM      30.31R
ST GEORGE      SUNNY     50  25  37 SE9       30.27R

$$

REGIONAL REPORTS     COLORADO/ARIZONA

CITY           SKY/WX    TMP DP  RH WIND       PRES   REMARKS
CRAIG, CO      MOSUNNY   30  27  88 S5        30.35S WCI  25
GRAND JUNCTION PTCLDY    38  23  55 SE6       30.32R WCI  33
RIFLE          SUNNY     32  23  69 S3        30.37R
MONTROSE       MOSUNNY   37  24  59 SE8       30.37R WCI  31
CORTEZ         CLEAR     32  22  66 NE6       30.34S WCI  26
PAGE, AZ       CLEAR     48  23  37 CALM      30.29R
GRAND CANYON   PTCLDY    24  17  74 CALM      30.37R
KINGMAN        CLEAR     43  26  51 E3        30.21R
FLAGSTAFF      PTCLDY    27  17  66 CALM      30.38R

$$

REGIONAL REPORTS    NEVADA/IDAHO/WYOMING

CITY           SKY/WX    TMP DP  RH WIND       PRES   REMARKS
LAS VEGAS, NV  CLEAR     60  27  28 SW7       30.14R
ELY            CLEAR     29  20  69 S13       30.36S WCI  19
ELKO           CLEAR     34  26  72 NE3       30.32R
POCATELLO, ID  CLEAR     31  29  92 NE6       30.32S WCI  25
BURLEY         CLEAR     34  30  85 CALM      30.27S
EVANSTON, WY   PTCLDY    33  25  72 SW7       30.36S WCI  27
ROCK SPRINGS   CLEAR     39  28  64 W7        30.32R WCI  34
KEMMERER       PTCLDY    36  30  80 W7        30.36R WCI  30

$$



USA.gov is the U.S. government's official web portal to all federal, state and local government web resources and services.